• en Suisse
  • Liste des pays
  • À 7 jours
  • Température de l'eau
  • Carte satellitaire
  • Carte météo
  • Widgets météo
  • user-avatar
    Se connecter

    Météo par heure à Obech

    Ce jour, 23 Septembre, Dimanche

    Heure Température Précipitation Vent Pression Humidité
    00:00 +8°C° 0 mm 3 m/s 748 mmHg 85%
    01:00 +8°C° 0 mm 3 m/s 748 mmHg 85%
    02:00 +8°C° 0 mm 3 m/s 748 mmHg 86%
    03:00 +8°C° 0 mm 3 m/s 748 mmHg 86%
    04:00 +7°C° 0 mm 3 m/s 748 mmHg 86%
    05:00 +7°C° 0 mm 3 m/s 748 mmHg 86%
    06:00 +8°C° 0 mm 3 m/s 748 mmHg 83%
    07:00 +8°C° 0 mm 4 m/s 747 mmHg 80%
    08:00 +10°C° 0 mm 4 m/s 747 mmHg 76%
    09:00 +12°C° 0 mm 5 m/s 747 mmHg 69%
    10:00 +13°C° 0 mm 5 m/s 747 mmHg 62%
    11:00 +15°C° 0 mm 5 m/s 747 mmHg 55%
    12:00 +15°C° 0.1 mm 5 m/s 747 mmHg 56%
    13:00 +15°C° 0.1 mm 5 m/s 747 mmHg 57%
    14:00 +15°C° 0.1 mm 5 m/s 746 mmHg 59%
    15:00 +14°C° 0.2 mm 5 m/s 746 mmHg 64%
    16:00 +14°C° 0.2 mm 4 m/s 746 mmHg 69%
    17:00 +13°C° 0.2 mm 3 m/s 745 mmHg 74%
    18:00 +13°C° 0 mm 3 m/s 745 mmHg 77%
    19:00 +12°C° 0 mm 3 m/s 745 mmHg 80%
    20:00 +12°C° 0 mm 2 m/s 744 mmHg 84%
    21:00 +12°C° 1 mm 2 m/s 744 mmHg 87%
    22:00 +12°C° 1 mm 2 m/s 743 mmHg 89%
    23:00 +10°C° 1 mm 2 m/s 742 mmHg 92%

    Demain, 24 Septembre, Lundi

    Heure Température Précipitation Vent Pression Humidité
    00:00 +10°C° 2.6 mm 3 m/s 741 mmHg 93%
    01:00 +10°C° 2.6 mm 4 m/s 740 mmHg 94%
    02:00 +10°C° 2.6 mm 4 m/s 738 mmHg 95%
    03:00 +10°C° 0.9 mm 4 m/s 737 mmHg 95%
    04:00 +11°C° 0.9 mm 4 m/s 736 mmHg 95%
    05:00 +11°C° 0.9 mm 4 m/s 735 mmHg 95%
    06:00 +9°C° 0.9 mm 5 m/s 736 mmHg 93%
    07:00 +9°C° 0.9 mm 6 m/s 736 mmHg 92%
    08:00 +9°C° 0.9 mm 8 m/s 737 mmHg 91%
    09:00 +9°C° 0.1 mm 8 m/s 738 mmHg 86%
    10:00 +9°C° 0.1 mm 7 m/s 739 mmHg 82%
    11:00 +9°C° 0.1 mm 7 m/s 740 mmHg 78%
    12:00 +10°C° 0.2 mm 8 m/s 741 mmHg 74%
    13:00 +11°C° 0.2 mm 8 m/s 741 mmHg 71%
    14:00 +12°C° 0.2 mm 8 m/s 742 mmHg 67%
    15:00 +11°C° 0.2 mm 7 m/s 742 mmHg 68%
    16:00 +11°C° 0.2 mm 7 m/s 742 mmHg 68%
    17:00 +11°C° 0.2 mm 6 m/s 743 mmHg 68%
    18:00 +10°C° 0.1 mm 6 m/s 743 mmHg 71%
    19:00 +9°C° 0.1 mm 6 m/s 744 mmHg 73%
    20:00 +8°C° 0.1 mm 5 m/s 744 mmHg 75%
    21:00 +8°C° 0.3 mm 5 m/s 745 mmHg 78%
    22:00 +7°C° 0.3 mm 5 m/s 745 mmHg 81%
    23:00 +7°C° 0.3 mm 5 m/s 746 mmHg 84%

    Après-demain, 25 Septembre, Mardi

    Heure Température Précipitation Vent Pression Humidité
    00:00 +7°C° 0.2 mm 5 m/s 746 mmHg 84%
    01:00 +5°C° 0.2 mm 6 m/s 747 mmHg 84%
    02:00 +5°C° 0.2 mm 6 m/s 748 mmHg 84%
    03:00 +4°C° 0 mm 6 m/s 749 mmHg 84%
    04:00 +3°C° 0 mm 6 m/s 749 mmHg 84%
    05:00 +2°C° 0 mm 5 m/s 750 mmHg 84%
    06:00 +3°C° 0 mm 6 m/s 751 mmHg 81%
    07:00 +3°C° 0 mm 6 m/s 752 mmHg 78%
    08:00 +4°C° 0 mm 7 m/s 752 mmHg 75%
    09:00 +5°C° 0 mm 7 m/s 753 mmHg 70%
    10:00 +6°C° 0 mm 7 m/s 753 mmHg 64%
    11:00 +9°C° 0 mm 8 m/s 753 mmHg 58%
    12:00 +9°C° 0.2 mm 8 m/s 754 mmHg 58%
    13:00 +9°C° 0.2 mm 8 m/s 754 mmHg 58%
    14:00 +9°C° 0.2 mm 8 m/s 754 mmHg 58%
    15:00 +9°C° 0.2 mm 7 m/s 755 mmHg 60%
    16:00 +9°C° 0.2 mm 7 m/s 755 mmHg 62%
    17:00 +8°C° 0.2 mm 6 m/s 755 mmHg 64%
    18:00 +7°C° 0 mm 6 m/s 756 mmHg 68%
    19:00 +6°C° 0 mm 5 m/s 757 mmHg 72%
    20:00 +5°C° 0 mm 5 m/s 757 mmHg 75%
    21:00 +5°C° 0 mm 4 m/s 758 mmHg 77%
    22:00 +5°C° 0 mm 4 m/s 759 mmHg 79%
    23:00 +4°C° 0 mm 4 m/s 759 mmHg 81%

    26 Septembre, Mercredi

    Heure Température Précipitation Vent Pression Humidité
    00:00 +4°C° 0 mm 4 m/s 760 mmHg 83%
    01:00 +4°C° 0 mm 3 m/s 760 mmHg 85%
    02:00 +3°C° 0 mm 3 m/s 761 mmHg 87%
    03:00 +3°C° 0 mm 3 m/s 761 mmHg 88%
    04:00 +2°C° 0 mm 3 m/s 761 mmHg 89%
    05:00 +3°C° 0 mm 2 m/s 761 mmHg 90%
    06:00 +3°C° 0 mm 3 m/s 761 mmHg 85%
    07:00 +4°C° 0 mm 3 m/s 761 mmHg 80%
    08:00 +4°C° 0 mm 3 m/s 761 mmHg 75%
    09:00 +6°C° 0 mm 4 m/s 761 mmHg 68%
    10:00 +8°C° 0 mm 4 m/s 761 mmHg 60%
    11:00 +10°C° 0 mm 5 m/s 761 mmHg 53%
    12:00 +10°C° 0 mm 5 m/s 761 mmHg 52%
    13:00 +10°C° 0 mm 5 m/s 760 mmHg 51%
    14:00 +12°C° 0 mm 5 m/s 760 mmHg 51%
    15:00 +12°C° 0 mm 5 m/s 759 mmHg 54%
    16:00 +11°C° 0 mm 4 m/s 759 mmHg 57%
    17:00 +11°C° 0 mm 4 m/s 758 mmHg 59%
    18:00 +11°C° 0 mm 4 m/s 758 mmHg 60%
    19:00 +10°C° 0 mm 4 m/s 757 mmHg 61%
    20:00 +9°C° 0 mm 5 m/s 757 mmHg 62%
    21:00 +9°C° 0 mm 5 m/s 757 mmHg 62%
    22:00 +9°C° 0 mm 5 m/s 756 mmHg 62%
    23:00 +8°C° 0 mm 6 m/s 756 mmHg 62%

    27 Septembre, Jeudi

    Heure Température Précipitation Vent Pression Humidité
    00:00 +8°C° 0.1 mm 6 m/s 755 mmHg 65%
    01:00 +8°C° 0.1 mm 6 m/s 755 mmHg 67%
    02:00 +8°C° 0.1 mm 6 m/s 754 mmHg 69%
    03:00 +8°C° 0.3 mm 6 m/s 753 mmHg 73%
    04:00 +8°C° 0.3 mm 7 m/s 753 mmHg 77%
    05:00 +8°C° 0.3 mm 7 m/s 752 mmHg 81%
    06:00 +8°C° 0.2 mm 7 m/s 752 mmHg 80%
    07:00 +8°C° 0.2 mm 7 m/s 752 mmHg 79%
    08:00 +8°C° 0.2 mm 7 m/s 751 mmHg 79%
    09:00 +9°C° 0.1 mm 7 m/s 751 mmHg 79%
    10:00 +9°C° 0.1 mm 6 m/s 752 mmHg 80%
    11:00 +9°C° 0.1 mm 6 m/s 752 mmHg 80%
    12:00 +10°C° 0 mm 6 m/s 751 mmHg 79%
    13:00 +10°C° 0 mm 7 m/s 751 mmHg 79%
    14:00 +11°C° 0 mm 7 m/s 751 mmHg 78%
    15:00 +13°C° 0 mm 6 m/s 751 mmHg 78%
    16:00 +13°C° 0 mm 5 m/s 751 mmHg 78%
    17:00 +14°C° 0 mm 5 m/s 751 mmHg 79%
    18:00 +14°C° 0.1 mm 5 m/s 751 mmHg 80%
    19:00 +14°C° 0.1 mm 5 m/s 751 mmHg 82%
    20:00 +13°C° 0.1 mm 5 m/s 751 mmHg 84%
    21:00 +13°C° 0 mm 5 m/s 751 mmHg 86%
    22:00 +13°C° 0 mm 5 m/s 751 mmHg 89%
    23:00 +12°C° 0 mm 4 m/s 751 mmHg 91%

    28 Septembre, Vendredi

    Heure Température Précipitation Vent Pression Humidité
    00:00 +12°C° 0 mm 4 m/s 751 mmHg 92%
    01:00 +12°C° 0 mm 4 m/s 751 mmHg 93%
    02:00 +12°C° 0 mm 4 m/s 751 mmHg 94%
    03:00 +12°C° 0 mm 4 m/s 750 mmHg 94%
    04:00 +12°C° 0 mm 5 m/s 750 mmHg 94%
    05:00 +12°C° 0 mm 5 m/s 749 mmHg 94%
    06:00 +11°C° 0 mm 6 m/s 749 mmHg 91%
    07:00 +13°C° 0 mm 6 m/s 749 mmHg 88%
    08:00 +14°C° 0 mm 7 m/s 749 mmHg 85%
    09:00 +15°C° 0 mm 7 m/s 749 mmHg 81%
    10:00 +16°C° 0 mm 7 m/s 749 mmHg 77%
    11:00 +17°C° 0 mm 7 m/s 749 mmHg 73%
    12:00 +17°C° 0 mm 6 m/s 749 mmHg 71%
    13:00 +19°C° 0 mm 6 m/s 749 mmHg 69%
    14:00 +20°C° 0 mm 5 m/s 749 mmHg 66%
    15:00 +19°C° 0.1 mm 4 m/s 749 mmHg 70%
    16:00 +19°C° 0.1 mm 3 m/s 748 mmHg 73%
    17:00 +18°C° 0.1 mm 2 m/s 748 mmHg 76%
    18:00 +17°C° 0.2 mm 2 m/s 748 mmHg 80%
    19:00 +16°C° 0.2 mm 2 m/s 748 mmHg 84%
    20:00 +15°C° 0.2 mm 1 m/s 749 mmHg 88%
    21:00 +15°C° 0.3 mm 2 m/s 749 mmHg 89%
    22:00 +14°C° 0.3 mm 2 m/s 748 mmHg 90%
    23:00 +14°C° 0.3 mm 2 m/s 748 mmHg 91%
    Voir plus